[[{"header":{"parameterUnit":"m.s-1","parameterCategory":2,"la1":30.2992,"la2":30.254,"lo1":-89.0895,"lo2":-89.0443,"dy":0.0025,"dx":0.0025,"nx":19,"ny":19,"refTime":"2026-05-06T09:00:00:Z","depth":"0","parameterNumber":2,"parameterNumberName":"U-component_of_CURRENTS"},"data":[0,0,0,-0.2095,-0.2095,-0.2127,-0.2127,-0.2154,-0.2154,0,0,0,0,0,0,0,0,0,0,0,-0.2075,-0.2075,-0.2094,-0.2096,-0.2127,-0.2127,-0.2154,-0.2154,0,0,0,0,0,0,0,0,0,0,0,-0.2075,-0.2075,-0.2075,-0.2096,-0.2127,-0.2127,-0.2154,-0.2132,0,0,0,0,0,0,0,0,0,0,-0.2102,-0.2082,-0.2075,-0.2075,-0.2096,-0.2127,-0.2127,-0.2131,-0.2133,-0.2137,0,-0.2141,0,-0.2154,-0.2156,-0.2156,0,0,0,-0.209,-0.208,-0.2097,-0.2075,-0.2096,-0.2127,-0.2111,-0.2132,-0.2135,-0.214,-0.2141,-0.2143,-0.2155,-0.2156,-0.2157,-0.2214,-0.2214,0,0,-0.2088,-0.2073,-0.2096,-0.2099,-0.2103,-0.211,-0.2112,-0.2134,-0.2131,-0.2141,-0.2143,-0.2155,-0.2157,-0.2157,-0.2213,-0.2214,0,0,0,-0.2087,-0.2072,-0.2088,-0.2097,-0.2108,-0.2111,-0.2114,-0.2129,-0.2137,-0.2144,-0.2156,-0.2157,-0.2157,-0.2213,-0.2213,-0.2252,0,0,0,-0.2085,-0.2072,-0.2087,-0.2078,-0.2108,-0.212,-0.2108,-0.2135,-0.2139,-0.2155,-0.2157,-0.2157,-0.2212,-0.2213,-0.225,-0.2265,0,0,0,-0.2074,-0.2071,-0.2075,-0.2077,-0.2096,-0.212,-0.2129,-0.2136,-0.2146,-0.2156,-0.2157,-0.2212,-0.2213,-0.2248,-0.2262,-0.2219,0,0,0,-0.2056,-0.2077,-0.2075,-0.2107,-0.2095,-0.2151,-0.2129,-0.216,-0.2172,-0.2157,-0.2212,-0.2213,-0.2248,-0.226,-0.2219,-0.2009,-0.1995,0,0,-0.2079,-0.2079,-0.2103,-0.2103,-0.216,-0.2146,-0.2201,-0.22,-0.2187,-0.2202,-0.2204,-0.2251,-0.2262,-0.2219,-0.2065,-0.2049,0,0,0,-0.211,-0.212,-0.2139,-0.2168,-0.2203,-0.2229,-0.2233,-0.2233,-0.2242,-0.2199,-0.226,-0.2265,-0.2237,-0.2109,-0.2098,-0.2018,-0.2218,-0.2218,-0.2218,-0.2096,-0.2134,-0.2173,-0.2217,-0.2252,-0.2287,-0.2304,-0.2303,-0.2287,-0.2295,-0.2304,-0.2309,-0.2176,-0.2165,-0.2087,-0.2312,-0.2313,-0.2313,-0.2313,-0.2123,-0.2177,-0.2191,-0.2246,-0.2287,-0.2331,-0.2364,-0.2357,-0.2355,-0.235,-0.2319,-0.2166,-0.2153,-0.2075,-0.2316,-0.2315,-0.2315,-0.2314,-0.2314,-0.2144,-0.2188,-0.2192,-0.2257,-0.2308,-0.2353,-0.2359,-0.2405,-0.2376,-0.2377,-0.2176,-0.2172,-0.2092,-0.2338,-0.2338,-0.2337,-0.2337,-0.2337,-0.2337,-0.22,-0.2212,-0.2221,-0.2283,-0.229,-0.2326,-0.2362,-0.2328,-0.2242,-0.2195,-0.2192,-0.2072,-0.2316,-0.2301,-0.2336,-0.2336,-0.2336,-0.2336,-0.2336,-0.2162,-0.2225,-0.22,-0.219,-0.2211,-0.2096,-0.2224,-0.208,-0.2052,-0.1957,-0.1853,-0.2073,-0.2025,-0.2031,-0.2009,-0.1966,-0.1966,-0.1966,-0.1966,-0.212,-0.2168,-0.2037,-0.1969,-0.1975,-0.195,-0.1718,-0.1703,-0.1667,-0.1591,-0.1663,-0.1615,-0.1633,-0.1563,-0.158,-0.155,-0.1391,-0.1391,-0.1391,-0.1944,-0.1974,-0.1733,-0.1764,-0.1777,-0.1675,-0.1378,-0.1281,-0.1283,-0.1371,-0.1601,-0.1626,-0.1567,-0.1602,-0.1503,-0.1533,-0.1487,0,0]},{"header":{"parameterUnit":"m.s-1","parameterCategory":2,"la1":30.2992,"la2":30.254,"lo1":-89.0895,"lo2":-89.0443,"dy":0.0025,"dx":0.0025,"nx":19,"ny":19,"refTime":"2026-05-06T09:00:00:Z","depth":"0","parameterNumber":3,"parameterNumberName":"V-component_of_CURRENTS"},"data":[0,0,0,-0.0362,-0.036,-0.0266,-0.0265,-0.0091,-0.009,0,0,0,0,0,0,0,0,0,0,0,-0.0395,-0.0394,-0.0362,-0.036,-0.0266,-0.0265,-0.0092,-0.009,0,0,0,0,0,0,0,0,0,0,0,-0.0395,-0.0394,-0.0394,-0.036,-0.0266,-0.0265,-0.0092,-0.0172,0,0,0,0,0,0,0,0,0,0,-0.0269,-0.0317,-0.0394,-0.0394,-0.0359,-0.0266,-0.0265,-0.0176,-0.0167,-0.0125,0,-0.0122,0,-0.0108,-0.0079,-0.0078,0,0,0,-0.0342,-0.0325,-0.0299,-0.0394,-0.0359,-0.0266,-0.0303,-0.0172,-0.0161,-0.0112,-0.012,-0.0114,-0.0105,-0.0078,-0.0077,0.0059,0.0059,0,0,-0.0348,-0.0372,-0.0306,-0.0293,-0.0348,-0.0307,-0.0301,-0.0166,-0.016,-0.0119,-0.011,-0.0102,-0.0076,-0.0075,0.0058,0.0059,0,0,0,-0.0375,-0.0376,-0.0353,-0.03,-0.029,-0.0304,-0.0297,-0.0166,-0.0159,-0.0108,-0.01,-0.0076,-0.0073,0.0058,0.0059,-0.0011,0,0,0,-0.0377,-0.0392,-0.0356,-0.0368,-0.0293,-0.0235,-0.0301,-0.0168,-0.0152,-0.0101,-0.0075,-0.0072,0.0058,0.0058,-0.0009,-0.0025,0,0,0,-0.0396,-0.0394,-0.0388,-0.037,-0.0337,-0.0237,-0.0222,-0.0164,-0.0148,-0.0078,-0.0071,0.0058,0.0058,-0.0008,-0.0023,0.0071,0,0,0,-0.0417,-0.0429,-0.0389,-0.0397,-0.0338,-0.0293,-0.0222,-0.0178,-0.0127,-0.0075,0.0058,0.0059,-0.0008,-0.0022,0.0071,0.0139,0.0147,0,0,-0.0447,-0.0433,-0.0438,-0.0401,-0.0388,-0.0304,-0.0261,-0.0168,-0.0097,0.002,0.0023,-0.001,-0.0023,0.0071,0.0171,0.0178,0,0,0,-0.0458,-0.0463,-0.0452,-0.0433,-0.0382,-0.0317,-0.0225,-0.0164,-0.0062,-0.0066,0.0021,0.0016,0.0077,0.0118,0.0124,0.0276,0.0061,0.0061,0.0061,-0.0518,-0.0495,-0.05,-0.0459,-0.042,-0.0318,-0.0247,-0.0137,-0.0083,-0.0043,-0.0019,0.0034,0.0074,0.008,0.0234,0.0,-0.0,-0.0,-0.0001,-0.0568,-0.0519,-0.0532,-0.0532,-0.0455,-0.0404,-0.0245,-0.0187,-0.0035,-0.0033,0.0031,0.0068,0.0083,0.0245,-0.0004,-0.0004,-0.0003,-0.0003,-0.0003,-0.0585,-0.0524,-0.0591,-0.0563,-0.0532,-0.0437,-0.0312,-0.0211,-0.0081,-0.0033,0.0105,0.0107,0.024,0.0022,0.0022,0.0023,0.0023,0.0023,0.0023,-0.0474,-0.0523,-0.051,-0.0555,-0.052,-0.0461,-0.0332,-0.0212,-0.0027,0.0068,0.007,0.0289,0.0044,0.0031,0.0028,0.0027,0.0027,0.0026,0.0026,-0.0236,-0.0337,-0.0322,-0.0327,-0.029,-0.0208,-0.0201,-0.0019,0.008,0.019,0.041,0.0163,0.0219,0.0215,0.0209,0.0253,0.0253,0.0253,0.0253,-0.0031,-0.0098,-0.0047,-0.003,0.0003,-0.0021,0.0179,0.0256,0.0445,0.0562,0.0587,0.0582,0.0566,0.0642,0.0629,0.0632,0.0782,0.0783,0.0784,0.0234,0.0154,0.0239,0.0126,0.0159,0.0222,0.042,0.0646,0.0784,0.0819,0.0789,0.0767,0.0767,0.073,0.085,0.082,0.0825,0,0]}],[{"header":{"parameterUnit":"m.s-1","parameterCategory":2,"la1":30.2992,"la2":30.254,"lo1":-89.0895,"lo2":-89.0443,"dy":0.0025,"dx":0.0025,"nx":19,"ny":19,"refTime":"2026-05-06T09:00:00:Z","depth":"2","parameterNumber":2,"parameterNumberName":"U-component_of_CURRENTS"},"data":[0,0,0,-0.1913,-0.1914,-0.1953,-0.1954,-0.1983,-0.1984,0,0,0,0,0,0,0,0,0,0,0,-0.1892,-0.1892,-0.1913,-0.1914,-0.1953,-0.1954,-0.1983,-0.1984,0,0,0,0,0,0,0,0,0,0,0,-0.1892,-0.1892,-0.1892,-0.1914,-0.1953,-0.1954,-0.1983,-0.1958,0,0,0,0,0,0,0,0,0,0,-0.1921,-0.1903,-0.1892,-0.1892,-0.1914,-0.1953,-0.1954,-0.1957,-0.1959,-0.196,0,-0.1965,0,-0.198,-0.1985,-0.1986,0,0,0,-0.191,-0.1901,-0.1917,-0.1892,-0.1915,-0.1953,-0.1935,-0.1958,-0.1961,-0.1964,-0.1966,-0.1967,-0.198,-0.1986,-0.1986,-0.2039,-0.2039,0,0,-0.1908,-0.1894,-0.1915,-0.1919,-0.1923,-0.1933,-0.1936,-0.196,-0.1959,-0.1966,-0.1968,-0.1981,-0.1986,-0.1986,-0.2039,-0.2039,0,0,0,-0.1904,-0.1893,-0.1909,-0.1917,-0.1929,-0.1935,-0.1938,-0.1957,-0.1964,-0.1969,-0.1981,-0.1986,-0.1986,-0.2038,-0.2039,-0.2068,0,0,0,-0.1903,-0.1891,-0.1908,-0.1899,-0.1928,-0.1946,-0.1934,-0.1962,-0.1966,-0.1981,-0.1986,-0.1987,-0.2038,-0.2038,-0.2066,-0.2072,0,0,0,-0.1891,-0.189,-0.1895,-0.1898,-0.1919,-0.1946,-0.1954,-0.1963,-0.1973,-0.1986,-0.1987,-0.2037,-0.2038,-0.2065,-0.207,-0.2041,0,0,0,-0.1875,-0.1892,-0.1894,-0.1923,-0.1918,-0.197,-0.1954,-0.1986,-0.2,-0.1986,-0.2038,-0.2039,-0.2064,-0.2068,-0.204,-0.1855,-0.1843,0,0,-0.1892,-0.1893,-0.1914,-0.1918,-0.1968,-0.1964,-0.2014,-0.2019,-0.2012,-0.2027,-0.2028,-0.2067,-0.207,-0.204,-0.1907,-0.1893,0,0,0,-0.1918,-0.1926,-0.1945,-0.1971,-0.2006,-0.2031,-0.2044,-0.2047,-0.206,-0.2025,-0.2077,-0.2078,-0.2058,-0.1946,-0.1935,-0.2043,-0.2043,-0.2043,-0.2043,-0.1904,-0.1937,-0.1971,-0.201,-0.2043,-0.208,-0.2097,-0.2102,-0.2096,-0.2106,-0.2109,-0.2119,-0.2001,-0.1991,-0.2122,-0.2122,-0.2122,-0.2122,-0.2122,-0.192,-0.1947,-0.198,-0.2025,-0.2065,-0.2105,-0.2142,-0.2142,-0.2148,-0.2147,-0.2125,-0.1993,-0.198,-0.2125,-0.2124,-0.2124,-0.2124,-0.2124,-0.2123,-0.191,-0.1931,-0.1956,-0.2009,-0.206,-0.211,-0.2129,-0.2165,-0.2161,-0.2163,-0.2,-0.1996,-0.2109,-0.214,-0.214,-0.2139,-0.2139,-0.2139,-0.2139,-0.1896,-0.1926,-0.1937,-0.199,-0.2012,-0.206,-0.2117,-0.2106,-0.2043,-0.2008,-0.2006,-0.2124,-0.2123,-0.2109,-0.2138,-0.2138,-0.2138,-0.2139,-0.2139,-0.1868,-0.1902,-0.1889,-0.1897,-0.1969,-0.1952,-0.2003,-0.1907,-0.1889,-0.1805,-0.19,-0.1906,-0.1867,-0.1873,-0.1852,-0.1813,-0.1813,-0.1813,-0.1813,-0.1857,-0.1866,-0.1828,-0.1821,-0.1877,-0.191,-0.1751,-0.163,-0.1604,-0.1568,-0.1579,-0.1541,-0.1558,-0.1501,-0.1516,-0.1488,-0.1355,-0.1354,-0.1354,-0.1814,-0.1795,-0.1718,-0.1746,-0.1826,-0.1838,-0.1629,-0.1309,-0.1175,-0.1342,-0.1568,-0.1769,-0.1742,-0.1758,-0.1695,-0.1709,-0.1674,0,0]},{"header":{"parameterUnit":"m.s-1","parameterCategory":2,"la1":30.2992,"la2":30.254,"lo1":-89.0895,"lo2":-89.0443,"dy":0.0025,"dx":0.0025,"nx":19,"ny":19,"refTime":"2026-05-06T09:00:00:Z","depth":"2","parameterNumber":3,"parameterNumberName":"V-component_of_CURRENTS"},"data":[0,0,0,-0.0415,-0.0414,-0.0331,-0.033,-0.018,-0.0179,0,0,0,0,0,0,0,0,0,0,0,-0.0444,-0.0444,-0.0415,-0.0414,-0.0331,-0.033,-0.018,-0.0179,0,0,0,0,0,0,0,0,0,0,0,-0.0444,-0.0444,-0.0444,-0.0414,-0.0331,-0.033,-0.0181,-0.025,0,0,0,0,0,0,0,0,0,0,-0.0335,-0.0378,-0.0444,-0.0444,-0.0413,-0.0331,-0.033,-0.0254,-0.0246,-0.0211,0,-0.0209,0,-0.0196,-0.0169,-0.0169,0,0,0,-0.0397,-0.0385,-0.0361,-0.0444,-0.0413,-0.0331,-0.0363,-0.025,-0.024,-0.02,-0.0207,-0.0202,-0.0194,-0.0168,-0.0168,-0.0069,-0.0069,0,0,-0.0402,-0.0424,-0.0368,-0.0356,-0.0405,-0.0366,-0.0361,-0.0244,-0.024,-0.0207,-0.0198,-0.0191,-0.0167,-0.0166,-0.0069,-0.0069,0,0,0,-0.0426,-0.0427,-0.0407,-0.0362,-0.0354,-0.0364,-0.0358,-0.0245,-0.0239,-0.0197,-0.019,-0.0167,-0.0165,-0.0069,-0.0069,-0.0149,0,0,0,-0.0428,-0.0442,-0.041,-0.0421,-0.0357,-0.0306,-0.0362,-0.0247,-0.0233,-0.019,-0.0167,-0.0163,-0.0069,-0.0069,-0.0147,-0.018,0,0,0,-0.0446,-0.0444,-0.0439,-0.0422,-0.0394,-0.0307,-0.0294,-0.0244,-0.0229,-0.0169,-0.0163,-0.0069,-0.0069,-0.0145,-0.0176,-0.0119,0,0,0,-0.0463,-0.0479,-0.044,-0.0453,-0.0395,-0.0364,-0.0294,-0.0258,-0.0214,-0.0166,-0.0069,-0.0069,-0.0144,-0.0174,-0.0118,-0.008,-0.0081,0,0,-0.0497,-0.0483,-0.0492,-0.0455,-0.0455,-0.0373,-0.0351,-0.0265,-0.0196,-0.0101,-0.0099,-0.0147,-0.0176,-0.0118,-0.0078,-0.0078,0,0,0,-0.0511,-0.0521,-0.0513,-0.0502,-0.046,-0.0414,-0.0327,-0.0275,-0.019,-0.0172,-0.0124,-0.0138,-0.01,-0.0075,-0.0075,-0.0069,-0.0069,-0.0069,-0.0069,-0.0576,-0.0559,-0.0577,-0.0548,-0.0519,-0.0433,-0.0382,-0.0288,-0.0225,-0.0198,-0.0187,-0.0177,-0.0153,-0.0152,-0.0167,-0.0167,-0.0168,-0.0168,-0.0168,-0.0643,-0.0687,-0.0628,-0.0642,-0.0581,-0.0547,-0.042,-0.0364,-0.0251,-0.0225,-0.0182,-0.0141,-0.0158,-0.0174,-0.0173,-0.0172,-0.0171,-0.0171,-0.017,-0.0707,-0.0746,-0.0716,-0.0728,-0.0699,-0.0617,-0.0549,-0.0446,-0.0318,-0.0289,-0.0178,-0.0176,-0.0203,-0.0242,-0.0242,-0.0242,-0.0242,-0.0242,-0.0242,-0.084,-0.0818,-0.0871,-0.0833,-0.0848,-0.0781,-0.0617,-0.0517,-0.0341,-0.0245,-0.0243,-0.02,-0.0197,-0.0204,-0.0241,-0.0241,-0.0241,-0.0241,-0.0241,-0.1075,-0.1025,-0.1087,-0.1107,-0.1078,-0.1015,-0.0807,-0.0518,-0.0362,-0.026,-0.0185,-0.0187,-0.0139,-0.0137,-0.0139,-0.0157,-0.0157,-0.0157,-0.0157,-0.1268,-0.1235,-0.1351,-0.1384,-0.1333,-0.1158,-0.0974,-0.0623,-0.0304,-0.0175,-0.0175,-0.0184,-0.0186,-0.014,-0.0138,-0.014,-0.0158,-0.0159,-0.0159,-0.1504,-0.1461,-0.1594,-0.1526,-0.1479,-0.1283,-0.1105,-0.0739,-0.0306,-0.0163,-0.0217,-0.0149,-0.0161,-0.0165,-0.009,-0.0089,-0.0091,0,0]}],[{"header":{"parameterUnit":"m.s-1","parameterCategory":2,"la1":30.2992,"la2":30.254,"lo1":-89.0895,"lo2":-89.0443,"dy":0.0025,"dx":0.0025,"nx":19,"ny":19,"refTime":"2026-05-06T09:00:00:Z","depth":"4","parameterNumber":2,"parameterNumberName":"U-component_of_CURRENTS"},"data":[0,0,0,-0.1449,-0.1452,-0.157,-0.157,-0.1654,-0.1655,0,0,0,0,0,0,0,0,0,0,0,-0.1411,-0.1411,-0.1449,-0.1452,-0.157,-0.157,-0.1654,-0.1655,0,0,0,0,0,0,0,0,0,0,0,-0.141,-0.1411,-0.1412,-0.1452,-0.1569,-0.157,-0.1654,-0.1582,0,0,0,0,0,0,0,0,0,0,-0.1477,-0.1454,-0.1411,-0.1412,-0.1453,-0.1569,-0.157,-0.158,-0.1587,-0.1581,0,-0.1603,0,-0.1628,-0.1658,-0.1659,0,0,0,-0.1455,-0.1448,-0.1474,-0.1412,-0.1454,-0.1569,-0.1517,-0.1584,-0.1592,-0.159,-0.1605,-0.1608,-0.1629,-0.1659,-0.1659,-0.1731,-0.1731,0,0,-0.1449,-0.1436,-0.1469,-0.1479,-0.1489,-0.1514,-0.1521,-0.159,-0.1601,-0.1605,-0.1611,-0.163,-0.1659,-0.166,-0.1731,-0.1731,0,0,0,-0.1428,-0.1431,-0.1458,-0.1475,-0.1501,-0.1517,-0.1526,-0.1598,-0.1606,-0.1612,-0.1631,-0.1659,-0.166,-0.173,-0.1731,-0.1747,0,0,0,-0.1424,-0.1419,-0.1455,-0.1449,-0.15,-0.1561,-0.1532,-0.1602,-0.161,-0.1631,-0.1659,-0.1661,-0.173,-0.1731,-0.1745,-0.1735,0,0,0,-0.1404,-0.1417,-0.1431,-0.1447,-0.1496,-0.1561,-0.1574,-0.1605,-0.1621,-0.1659,-0.1661,-0.173,-0.173,-0.1744,-0.1733,-0.1695,0,0,0,-0.1386,-0.1409,-0.1431,-0.147,-0.1495,-0.1568,-0.1574,-0.1636,-0.1671,-0.166,-0.173,-0.1731,-0.1744,-0.1733,-0.1695,-0.1485,0,0,0,-0.1399,-0.141,-0.1434,-0.1456,-0.1517,-0.1552,-0.1618,-0.1666,-0.1679,-0.1702,-0.1705,-0.1746,-0.1733,-0.1695,-0.1539,0,0,0,0,-0.1428,-0.1442,-0.1467,-0.1512,-0.1566,-0.1615,-0.167,-0.1688,-0.1732,-0.1704,-0.1759,-0.1751,-0.1726,-0.1604,-0.1735,-0.1735,-0.1735,-0.1735,-0.1735,-0.1416,-0.1452,-0.1492,-0.1543,-0.1592,-0.1667,-0.1701,-0.1734,-0.1753,-0.1776,-0.1774,-0.177,-0.1646,-0.1796,-0.1796,-0.1796,-0.1796,-0.1796,-0.1796,-0.1419,-0.1419,-0.1497,-0.1549,-0.1611,-0.1673,-0.1734,-0.1757,-0.1777,-0.1799,-0.1774,-0.1645,-0.1798,-0.1798,-0.1797,-0.1797,-0.1797,-0.1797,-0.1797,-0.138,-0.1372,-0.1447,-0.1515,-0.1592,-0.1671,-0.1684,-0.1745,-0.1775,-0.1774,-0.1615,-0.1762,-0.1745,-0.1759,-0.1758,-0.1758,-0.1758,-0.1758,-0.1758,-0.1269,-0.1337,-0.1355,-0.1464,-0.1498,-0.1565,-0.1652,-0.1643,-0.169,-0.1593,-0.1768,-0.1756,-0.1757,-0.1742,-0.1755,-0.1755,-0.1756,-0.1756,-0.1756,-0.1131,-0.1186,-0.1198,-0.1236,-0.1318,-0.137,-0.1497,-0.1464,-0.1426,-0.1363,-0.148,-0.1495,-0.1455,-0.1463,-0.1436,-0.1358,-0.1355,-0.1353,0,-0.1002,-0.1042,-0.1023,-0.1043,-0.1065,-0.1224,-0.1149,-0.1198,-0.1238,-0.12,-0.1412,-0.1546,-0.1555,-0.1514,-0.1516,-0.1485,0,0,0,-0.0874,-0.0905,-0.0853,-0.093,-0.0945,-0.1007,-0.1128,-0.108,-0.1259,-0.1166,-0.1284,-0.1302,-0.158,-0.1746,-0.1719,-0.172,-0.1693,0,0]},{"header":{"parameterUnit":"m.s-1","parameterCategory":2,"la1":30.2992,"la2":30.254,"lo1":-89.0895,"lo2":-89.0443,"dy":0.0025,"dx":0.0025,"nx":19,"ny":19,"refTime":"2026-05-06T09:00:00:Z","depth":"4","parameterNumber":3,"parameterNumberName":"V-component_of_CURRENTS"},"data":[0,0,0,-0.0304,-0.0303,-0.0261,-0.0261,-0.0157,-0.0156,0,0,0,0,0,0,0,0,0,0,0,-0.0319,-0.0319,-0.0304,-0.0303,-0.0261,-0.0261,-0.0157,-0.0156,0,0,0,0,0,0,0,0,0,0,0,-0.0319,-0.0319,-0.0319,-0.0303,-0.0261,-0.0261,-0.0157,-0.0198,0,0,0,0,0,0,0,0,0,0,-0.0244,-0.0274,-0.0319,-0.0319,-0.0303,-0.0261,-0.0261,-0.0201,-0.0196,-0.0167,0,-0.0171,0,-0.0166,-0.0149,-0.0149,0,0,0,-0.0289,-0.0279,-0.0266,-0.0319,-0.0303,-0.0261,-0.0276,-0.0198,-0.0192,-0.016,-0.017,-0.0166,-0.0164,-0.0149,-0.0148,-0.0096,-0.0096,0,0,-0.0291,-0.0307,-0.027,-0.0263,-0.0305,-0.0278,-0.0275,-0.0195,-0.0194,-0.017,-0.0164,-0.0163,-0.0148,-0.0147,-0.0096,-0.0096,0,0,0,-0.0308,-0.0309,-0.0299,-0.0267,-0.0266,-0.0277,-0.0274,-0.0198,-0.0195,-0.0163,-0.0161,-0.0147,-0.0146,-0.0095,-0.0096,-0.018,0,0,0,-0.0309,-0.0319,-0.03,-0.0308,-0.0268,-0.0239,-0.0278,-0.02,-0.0191,-0.0162,-0.0147,-0.0145,-0.0095,-0.0096,-0.0178,-0.0223,0,0,0,-0.0319,-0.032,-0.032,-0.0309,-0.0297,-0.0241,-0.0233,-0.0198,-0.019,-0.0149,-0.0145,-0.0095,-0.0095,-0.0175,-0.0218,-0.0215,0,0,0,-0.0329,-0.0347,-0.032,-0.0341,-0.0298,-0.0292,-0.0233,-0.0216,-0.0188,-0.0147,-0.0095,-0.0096,-0.0175,-0.0215,-0.0213,-0.0211,0,0,0,-0.0359,-0.0351,-0.0364,-0.0339,-0.0359,-0.0296,-0.0302,-0.0239,-0.0181,-0.0115,-0.0114,-0.0179,-0.0218,-0.0214,-0.0236,0,0,0,0,-0.0379,-0.0394,-0.0393,-0.0399,-0.0376,-0.0361,-0.0298,-0.0262,-0.0207,-0.0168,-0.0163,-0.0185,-0.018,-0.0172,-0.0098,-0.0098,-0.0098,-0.0098,-0.0098,-0.0436,-0.0432,-0.0464,-0.0458,-0.0448,-0.0401,-0.0378,-0.0314,-0.0251,-0.0239,-0.0243,-0.0285,-0.028,-0.0224,-0.0224,-0.0225,-0.0225,-0.0225,-0.0225,-0.0505,-0.0554,-0.0525,-0.0558,-0.0532,-0.0526,-0.045,-0.0406,-0.035,-0.0301,-0.0291,-0.0249,-0.0233,-0.0232,-0.0231,-0.023,-0.0229,-0.0229,-0.0228,-0.057,-0.0608,-0.0602,-0.0648,-0.0657,-0.0612,-0.0602,-0.0528,-0.0432,-0.0429,-0.0371,-0.0328,-0.0332,-0.0407,-0.0407,-0.0408,-0.0408,-0.0408,-0.0408,-0.0677,-0.0677,-0.0742,-0.0755,-0.0786,-0.0774,-0.0692,-0.0637,-0.0533,-0.0467,-0.0443,-0.0346,-0.034,-0.034,-0.0411,-0.0411,-0.041,-0.041,-0.041,-0.0828,-0.0821,-0.0901,-0.0938,-0.0982,-0.0942,-0.0849,-0.0675,-0.062,-0.0537,-0.0464,-0.0461,-0.0422,-0.0413,-0.0415,-0.0511,-0.0511,-0.0511,0,-0.0946,-0.0944,-0.1051,-0.1111,-0.1142,-0.1052,-0.0937,-0.0809,-0.0657,-0.0663,-0.0662,-0.0593,-0.0585,-0.0552,-0.0544,-0.0554,0,0,0,-0.106,-0.1057,-0.1134,-0.1165,-0.1208,-0.1031,-0.0896,-0.0835,-0.0666,-0.0565,-0.0518,-0.0516,-0.0484,-0.0421,-0.0351,-0.0344,-0.034,0,0]}]]